星链-31332 (STARLINK-31332 )

导读 | 星芒AI

STARLINK-31332 是 SpaceX 星链计划中的一颗低轨通信卫星,属于其大规模星座部署的一部分。该卫星旨在提供全球高速互联网服务,尤其服务于偏远和网络基础设施薄弱的地区。它运行在约 550 公里的轨道高度,采用先进的推进和通信技术,具备自动避障功能。作为星链计划的持续扩展,该卫星有助于提升网络覆盖和连接稳定性,推动全球互联网普及。

基本信息
目录编号:
59566
目录名称:
STARLINK-31332
国际标识:
2024-076C
轨道中心:
EARTH
卫星名称:
星链-31332
卫星全名:
星链-31332 (STARLINK-31332 )
卫星状态:
在轨 (已飞行605 天)
发射日期:
2024-04-23 UTC
国别 :
美国 (US)
星等 :
--
轨道信息
数据来源 国际轨道数据
星历时间: 2025-12-18T16:07:04+0800
1天前
查看轨道信息
半长轴: 6861.113km
偏心率: 0.0003744
轨道倾角: 43.006°
近地点辐角 284.652°
升交点赤经 108.206°
平近点角 75.391°
近地点: 480.409km
远地点: 485.547km
周期: 94.265分钟
每日圈数: 15.276046
详细信息
固有亮度:
5
最大亮度:
1.5
卫星平台:
Starlink v2.0 mini
覆盖范围:
全球
运营商:
太空探索技术公司
运营商所在国:
美国
制造商(研发单位):
太空探索技术公司
制造商所在国:
美国
使用方式:
暂无
卫星简介
星链(Starlink)计划是由太空探索技术公司(SpaceX)提出的一个巨型低轨卫星互联网星座项目,计划在2019年至2024年间在太空搭建由约1.2万颗卫星组成的“星链”网络,其中1584颗将部署在地球上空550千米处的近地轨道,并从2020年开始工作。该卫星仍在工作。
2D轨道图
3D轨道图
轨道高度分析图
轨道倾角分析图
轨道综合分析图
查看轨道综合分析图